Voltar ao catálogo

TITAN 3C TRANSTAGE DEB

LostHEO
NORAD 26778·DEBRIS·🇺🇸 United States

Lançado Dec 21, 1965 de Cape Canaveral Space Force Station

Loading…

Próximas Passagens (próximas 24 horas)

TLE

ObsoletoSource: Space-Track

Época: Jul 8, 2026, 14:24 UTC

1 26778U 65108AW  26189.60063098 -.00000375  00000-0 -56303-2 0  9994
2 26778  27.9148  65.7028 6771023 249.1298 345.1016  2.65397592113421

Acompanhe TITAN 3C TRANSTAGE DEB em tempo real com AllMySat

Download on the App Store